TimeCDT,TemperatureF,Dew PointF,Humidity,Sea Level PressureIn,VisibilityMPH,Wind Direction,Wind SpeedMPH,Gust SpeedMPH,PrecipitationIn,Events,Conditions,WindDirDegrees,DateUTC
12:53 AM,69.1,66.0,90,29.81,10.0,West,5.8,-,N/A,,Mostly Cloudy,260,2013-08-07 05:53:00
1:40 AM,69.8,66.2,88,29.84,10.0,NNW,6.9,-,N/A,Thunderstorm,Clear,330,2013-08-07 06:40:00
1:53 AM,69.1,66.9,93,29.79,10.0,SSW,4.6,-,N/A,Thunderstorm,Clear,200,2013-08-07 06:53:00
2:24 AM,69.8,66.2,88,29.81,10.0,NNW,4.6,-,N/A,Thunderstorm,Scattered Clouds,330,2013-08-07 07:24:00
2:53 AM,70.0,68.0,93,29.81,9.0,North,12.7,19.6,0.00,Rain-Thunderstorm,Light Thunderstorms and Rain,350,2013-08-07 07:53:00
3:15 AM,69.8,66.2,88,29.85,6.0,North,5.8,-,0.04,Rain-Thunderstorm,Heavy Thunderstorms and Rain,360,2013-08-07 08:15:00
3:23 AM,66.2,66.2,100,29.83,1.8,East,4.6,-,0.18,Rain-Thunderstorm,Heavy Thunderstorms and Rain,100,2013-08-07 08:23:00
3:31 AM,68.0,66.2,94,29.82,3.0,NE,5.8,16.1,0.22,Rain-Thunderstorm,Light Thunderstorms and Rain,50,2013-08-07 08:31:00
3:45 AM,68.0,66.2,94,29.83,10.0,East,8.1,-,0.22,Thunderstorm,Thunderstorm,90,2013-08-07 08:45:00
3:53 AM,66.9,66.0,97,29.80,10.0,ESE,8.1,-,0.22,Rain-Thunderstorm,Light Rain,120,2013-08-07 08:53:00
4:13 AM,68.0,66.2,94,29.80,10.0,East,5.8,-,0.01,,Mostly Cloudy,100,2013-08-07 09:13:00
4:53 AM,66.9,66.0,97,29.78,10.0,SE,5.8,-,0.01,,Clear,140,2013-08-07 09:53:00
5:53 AM,68.0,66.0,93,29.81,10.0,SW,3.5,-,N/A,,Clear,220,2013-08-07 10:53:00
6:53 AM,68.0,66.9,96,29.83,10.0,WSW,3.5,-,N/A,,Scattered Clouds,240,2013-08-07 11:53:00
7:53 AM,70.0,68.0,93,29.84,10.0,SW,3.5,-,N/A,,Clear,230,2013-08-07 12:53:00
8:53 AM,75.0,72.0,90,29.83,10.0,WNW,4.6,-,N/A,,Clear,300,2013-08-07 13:53:00
9:53 AM,79.0,72.0,79,29.86,10.0,WNW,6.9,-,N/A,,Partly Cloudy,300,2013-08-07 14:53:00
10:53 AM,79.0,70.0,74,29.86,10.0,NW,11.5,-,N/A,,Clear,320,2013-08-07 15:53:00
11:53 AM,81.0,71.1,72,29.86,10.0,NNW,11.5,-,N/A,,Clear,330,2013-08-07 16:53:00
12:53 PM,82.9,66.9,58,29.86,10.0,NW,17.3,-,N/A,,Clear,320,2013-08-07 17:53:00
1:53 PM,82.9,66.9,58,29.87,10.0,NNW,15.0,-,N/A,,Clear,340,2013-08-07 18:53:00
2:53 PM,82.0,66.0,58,29.89,10.0,North,12.7,-,N/A,,Clear,350,2013-08-07 19:53:00
3:53 PM,82.0,64.0,54,29.89,10.0,North,12.7,-,N/A,,Scattered Clouds,10,2013-08-07 20:53:00
4:53 PM,81.0,64.0,56,29.90,10.0,North,13.8,-,N/A,,Clear,360,2013-08-07 21:53:00
5:53 PM,80.1,63.0,56,29.91,10.0,North,11.5,-,N/A,,Scattered Clouds,360,2013-08-07 22:53:00
6:53 PM,77.0,63.0,62,29.93,10.0,North,10.4,-,N/A,,Clear,10,2013-08-07 23:53:00
7:53 PM,73.9,63.0,68,29.94,10.0,NNE,5.8,-,N/A,,Clear,20,2013-08-08 00:53:00
8:53 PM,70.0,63.0,78,29.94,10.0,NNE,4.6,-,N/A,,Clear,20,2013-08-08 01:53:00
9:53 PM,68.0,63.0,84,29.96,10.0,North,4.6,-,N/A,,Clear,10,2013-08-08 02:53:00
10:53 PM,64.9,62.1,90,29.98,10.0,North,5.8,-,N/A,,Clear,360,2013-08-08 03:53:00
11:53 PM,64.9,61.0,87,29.98,10.0,North,5.8,-,N/A,,Clear,360,2013-08-08 04:53:00